GW3165 Weather Reports


time (UTC)temp
C
wind
direction
speed
KPH
gust
KPH
rain 1hr
cm
rain 24hr
cm
rain mn
cm
humidity
%
barometer
mb
20260505125020 2 314 3.2 14.5 0.05 0.74 0.30 92 1015.4
20260505124542 2 294 4.8 16.1 0.03 0.71 0.28 92 1015.4
20260505124019 2 343 4.8 17.7 0.05 0.71 0.28 92 1015.3
20260505123517 2 349 8.0 17.7 0.05 0.71 0.28 91 1015.3
20260505123057 2 340 6.4 17.7 0.05 0.71 0.28 92 1015.2
20260505122518 2 328 1.6 11.3 0.08 0.71 0.28 92 1015.2
20260505122019 2 301 4.8 17.7 0.13 0.71 0.28 92 1015.3
20260505121536 2 17 6.4 17.7 0.18 0.71 0.28 91 1015.3
20260505121019 2 345 4.8 12.9 0.20 0.71 0.28 91 1015.2
20260505120521 2 345 3.2 12.9 0.18 0.69 0.25 91 1015.2
20260505120035 2 320 3.2 11.3 0.20 0.69 0.25 91 1015.1
20260505115518 2 294 4.8 16.1 0.20 0.69 0.25 91 1014.9
20260505115020 2 335 4.8 16.1 0.20 0.69 0.25 91 1014.9
20260505114551 3 316 6.4 16.1 0.20 0.69 0.25 91 1014.9
20260505114018 3 289 4.8 17.7 0.18 0.66 0.23 91 1014.8
20260505113518 3 345 6.4 17.7 0.18 0.66 0.23 91 1014.8
20260505113039 3 323 4.8 12.9 0.18 0.66 0.23 91 1014.6
20260505112516 3 329 3.2 16.1 0.15 0.64 0.20 91 1014.6
20260505112020 3 323 6.4 16.1 0.10 0.58 0.15 90 1014.5
20260505111552 3 330 3.2 22.5 0.05 0.53 0.10 90 1014.5
20260505111017 3 338 6.4 22.5 0.05 0.51 0.08 90 1014.4
20260505110519 3 318 4.8 19.3 0.05 0.51 0.08 89 1014.4
20260505102022 5 324 4.8 17.7 0.03 0.48 0.05 91 1013.6
20260505101536 5 346 4.8 19.3 0.03 0.48 0.05 91 1013.5
20260505101020 5 344 6.4 20.9 0.00 0.46 0.03 91 1013.4
20260505100518 5 348 8.0 20.9 0.00 0.46 0.03 91 1013.4
20260505100036 5 346 8.0 20.9 0.00 0.46 0.03 91 1013.4
20260505095519 5 352 8.0 19.3 0.00 0.46 0.03 91 1013.2
20260505095018 5 301 8.0 20.9 0.00 0.46 0.03 91 1013.2
20260505094536 5 286 8.0 25.7 0.00 0.46 0.03 91 1013.0
20260505094022 5 328 8.0 25.7 0.00 0.46 0.03 91 1013.2
20260505093519 5 315 9.7 25.7 0.00 0.46 0.03 91 1013.1
20260505093036 5 4 6.4 22.5 0.00 0.46 0.03 90 1013.2
20260505092516 6 352 9.7 22.5 0.00 0.46 0.03 90 1013.2
20260505092017 6 341 8.0 17.7 0.00 0.46 0.03 90 1013.0
20260505091538 6 347 8.0 16.1 0.00 0.46 0.03 90 1013.0
20260505091018 6 330 6.4 16.1 0.00 0.46 0.03 90 1012.9
20260505090518 6 358 4.8 19.3 0.00 0.46 0.03 90 1012.8
20260505090048 6 345 8.0 19.3 0.00 0.46 0.03 89 1012.8
20260505085519 6 337 8.0 19.3 0.00 0.46 0.03 89 1012.8
20260505085019 7 340 6.4 16.1 0.00 0.46 0.03 89 1012.7
20260505084535 7 352 6.4 12.9 0.00 0.46 0.03 89 1012.6
20260505084018 8 359 4.8 12.9 0.00 0.46 0.03 90 1012.7
20260505083518 8 359 3.2 8.0 0.00 0.46 0.03 91 1012.6
20260505083044 8 345 3.2 8.0 0.00 0.46 0.03 92 1012.7
20260505082518 8 310 3.2 8.0 0.00 0.46 0.03 92 1012.8
20260505082019 8 349 4.8 8.0 0.00 0.46 0.03 92 1012.8
20260505081546 8 327 0.0 4.8 0.00 0.46 0.03 92 1012.8
20260505081023 8 0 0.0 0.0 0.00 0.46 0.03 92 1012.8
20260505080518 8 0 0.0 0.0 0.00 0.46 0.03 92 1012.9
20260505080039 8 0 0.0 0.0 0.00 0.46 0.03 92 1012.7
20260505075518 8 0 0.0 0.0 0.00 0.46 0.03 92 1012.5
20260505075018 8 0 0.0 0.0 0.00 0.46 0.03 92 1012.7
20260505074533 8 0 0.0 0.0 0.03 0.46 0.03 92 1012.7
20260505074019 8 0 0.0 0.0 0.03 0.46 0.03 92 1012.8
20260505073518 8 0 0.0 0.0 0.03 0.46 0.03 92 1012.8
20260505073038 8 0 0.0 0.0 0.03 0.46 0.03 92 1012.8
20260505072519 8 0 0.0 0.0 0.03 0.46 0.03 92 1012.9
20260505072019 8 0 0.0 0.0 0.03 0.46 0.03 92 1012.8
20260505071539 8 0 0.0 0.0 0.03 0.46 0.03 91 1012.9
20260505071019 8 0 0.0 0.0 0.03 0.46 0.03 91 1012.9
20260505070521 8 0 0.0 0.0 0.03 0.46 0.03 91 1013.1
20260505070044 8 0 0.0 0.0 0.03 0.46 0.03 91 1013.0
20260505065518 8 0 0.0 0.0 0.03 0.46 0.03 91 1013.0
20260505065018 8 0 0.0 0.0 0.03 0.46 0.03 92 1013.0
20260505064551 8 0 0.0 0.0 0.00 0.43 0.00 92 1013.0
20260505064020 8 0 0.0 0.0 0.00 0.43 0.00 91 1013.0
20260505063520 8 0 0.0 0.0 0.00 0.43 0.00 91 1013.0
20260505063034 8 0 0.0 0.0 0.00 0.43 0.00 91 1013.1
20260505062519 7 0 0.0 0.0 0.00 0.43 0.00 91 1013.0
20260505062019 7 0 0.0 0.0 0.00 0.43 0.00 91 1013.0
20260505061541 7 0 0.0 0.0 0.00 0.43 0.00 91 1013.1
20260505061019 7 0 0.0 0.0 0.00 0.43 0.00 91 1013.2
20260505060519 8 0 0.0 0.0 0.00 0.43 0.00 91 1013.2
20260505060036 7 0 0.0 0.0 0.00 0.43 0.00 91 1013.1
20260505055520 7 0 0.0 0.0 0.00 0.43 0.43 91 1013.1
20260505055020 7 0 0.0 0.0 0.00 0.43 0.43 91 1013.1
20260505054535 7 0 0.0 1.6 0.00 0.43 0.43 91 1013.3
20260505054021 7 0 0.0 1.6 0.00 0.43 0.43 91 1013.2
20260505053517 7 0 0.0 0.0 0.00 0.43 0.43 91 1013.0
20260505053034 7 0 0.0 0.0 0.00 0.43 0.43 91 1013.0
20260505052518 7 0 0.0 0.0 0.00 0.43 0.43 90 1013.0
20260505052018 7 0 0.0 0.0 0.00 0.43 0.43 90 1013.0
20260505051532 8 0 0.0 0.0 0.00 0.43 0.43 90 1013.0
20260505051018 8 0 0.0 0.0 0.00 0.43 0.43 90 1013.3
20260505050523 8 0 0.0 0.0 0.00 0.43 0.43 90 1013.4
20260505041535 8 0 0.0 3.2 0.28 0.43 0.43 89 1013.6
20260505041019 8 271 0.0 3.2 0.33 0.43 0.43 89 1013.8
20260505040518 8 294 0.0 3.2 0.38 0.43 0.43 89 1013.8
20260505040035 8 0 0.0 3.2 0.38 0.41 0.41 88 1013.5
20260505035519 8 281 0.0 4.8 0.36 0.38 0.38 88 1013.5
20260505035017 8 0 0.0 6.4 0.33 0.36 0.36 87 1013.6
20260505034539 8 328 0.0 9.7 0.30 0.33 0.33 87 1013.6
20260505034021 8 283 3.2 11.3 0.28 0.30 0.30 86 1013.7
20260505033522 8 307 4.8 14.5 0.25 0.28 0.28 85 1013.8
20260505033037 8 288 3.2 14.5 0.20 0.23 0.23 85 1014.0
20260505032517 9 310 4.8 9.7 0.18 0.20 0.20 84 1013.8
20260505032021 9 321 4.8 9.7 0.15 0.18 0.18 82 1013.6
20260505031535 10 311 4.8 9.7 0.13 0.15 0.15 80 1013.4
20260505031018 10 290 3.2 11.3 0.08 0.10 0.10 76 1013.3
20260505030520 11 294 4.8 11.3 0.03 0.05 0.05 71 1013.2
20260505030035 11 330 1.6 11.3 0.00 0.03 0.03 69 1013.0
20260505025518 11 280 3.2 11.3 0.00 0.03 0.03 69 1012.8
20260505025017 11 300 1.6 8.0 0.00 0.03 0.03 71 1012.5
20260505024544 11 293 1.6 8.0 0.00 0.03 0.03 69 1012.3
20260505024017 11 333 3.2 9.7 0.00 0.03 0.03 68 1012.2
20260505023517 11 339 4.8 11.3 0.00 0.03 0.03 69 1012.1
20260505023044 11 345 4.8 11.3 0.00 0.03 0.03 67 1012.0
20260505022523 11 345 4.8 12.9 0.00 0.03 0.03 65 1011.8
20260505022017 12 340 3.2 17.7 0.00 0.03 0.03 63 1011.7
20260505021543 12 347 4.8 17.7 0.00 0.03 0.03 61 1011.7
20260505021018 12 327 6.4 17.7 0.00 0.03 0.03 60 1011.7
20260505020517 12 0 0.0 0.0 0.00 0.03 0.03 60 1011.5
20260505020036 12 0 0.0 0.0 0.00 0.03 0.03 60 1011.7
20260505015518 12 0 0.0 0.0 0.00 0.03 0.03 61 1011.8
20260505015021 12 0 0.0 0.0 0.00 0.03 0.03 60 1011.7
20260505014541 12 0 0.0 0.0 0.00 0.03 0.03 61 1011.4
20260505014018 12 0 0.0 0.0 0.00 0.03 0.03 60 1011.2
20260505013517 12 0 0.0 0.0 0.00 0.03 0.03 61 1011.2
20260505013038 12 0 0.0 0.0 0.00 0.03 0.03 60 1011.2
20260505012517 12 0 0.0 0.0 0.00 0.03 0.03 60 1011.3
20260505012018 12 0 0.0 0.0 0.00 0.03 0.03 59 1011.4
20260505011538 12 0 0.0 1.6 0.00 0.03 0.03 60 1011.2
20260505011019 12 0 0.0 1.6 0.00 0.03 0.03 60 1011.2
20260505010519 12 0 0.0 1.6 0.00 0.03 0.03 59 1011.3
20260505010042 12 0 0.0 1.6 0.00 0.03 0.03 60 1011.2
20260505005517 12 0 0.0 3.2 0.00 0.03 0.03 62 1011.3
20260505005020 12 0 0.0 4.8 0.00 0.03 0.03 60 1011.3
20260505004536 13 0 0.0 9.7 0.00 0.03 0.03 59 1011.3
20260505004017 13 105 1.6 14.5 0.00 0.03 0.03 58 1011.4
20260505003519 14 295 3.2 14.5 0.00 0.03 0.03 53 1011.7
20260505003032 15 325 4.8 9.7 0.00 0.03 0.03 49 1011.7
20260505002518 15 294 1.6 8.0 0.00 0.03 0.03 50 1011.5
20260505002018 15 287 3.2 9.7 0.00 0.03 0.03 47 1011.5
20260505001540 15 66 1.6 9.7 0.00 0.03 0.03 49 1011.4
20260505001019 15 302 4.8 9.7 0.00 0.03 0.03 45 1011.2
20260505000517 15 330 4.8 9.7 0.00 0.03 0.03 42 1011.1
20260505000039 15 272 4.8 9.7 0.00 0.03 0.03 42 1010.9
20260504235515 15 288 3.2 9.7 0.00 0.03 0.03 42 1010.8
20260504235019 16 342 0.0 14.5 0.00 0.03 0.03 42 1010.5
20260504234538 16 12 4.8 14.5 0.00 0.03 0.03 41 1010.5
20260504234020 16 307 6.4 14.5 0.00 0.03 0.03 41 1010.3
20260504233518 16 304 4.8 16.1 0.00 0.03 0.03 40 1010.3
20260504233037 16 359 4.8 16.1 0.00 0.03 0.03 40 1010.2
20260504232518 16 66 8.0 17.7 0.00 0.03 0.03 40 1010.2
20260504232017 16 338 9.7 17.7 0.00 0.03 0.03 39 1010.2
20260504231553 16 359 6.4 20.9 0.00 0.03 0.03 39 1010.2
20260504231022 16 342 6.4 20.9 0.00 0.03 0.03 38 1010.2
20260504230518 17 348 3.2 24.1 0.00 0.03 0.03 38 1010.0
20260504230035 17 330 4.8 25.7 0.00 0.03 0.03 39 1009.9
20260504225517 17 345 11.3 25.7 0.00 0.03 0.03 38 1009.9
20260504225015 17 295 8.0 22.5 0.00 0.03 0.03 36 1009.7
20260504224540 17 309 9.7 22.5 0.00 0.03 0.03 36 1010.0
20260504224023 17 330 9.7 17.7 0.00 0.03 0.03 37 1010.0
20260504223521 16 323 8.0 27.4 0.00 0.03 0.03 38 1010.0
20260504223034 17 321 9.7 27.4 0.00 0.03 0.03 37 1010.0
20260504222518 17 339 6.4 16.1 0.00 0.03 0.03 37 1010.0
20260504222018 17 339 4.8 17.7 0.00 0.03 0.03 35 1010.1
20260504221538 17 319 3.2 17.7 0.00 0.03 0.03 35 1010.1
20260504221019 17 354 8.0 17.7 0.00 0.03 0.03 35 1010.0
20260504220518 17 25 8.0 17.7 0.00 0.03 0.03 35 1010.0
20260504220058 17 337 4.8 17.7 0.00 0.03 0.03 34 1009.6
20260504215518 17 354 8.0 27.4 0.00 0.03 0.03 34 1009.5
20260504215021 17 330 9.7 27.4 0.00 0.03 0.03 33 1009.3
20260504214534 18 325 9.7 27.4 0.00 0.03 0.03 31 1009.1
20260504214016 20 346 8.0 19.3 0.00 0.03 0.03 29 1008.8
20260504213519 20 79 3.2 14.5 0.00 0.03 0.03 24 1008.6
20260504213034 21 91 3.2 17.7 0.00 0.03 0.03 24 1008.5
20260504212518 21 132 6.4 17.7 0.00 0.03 0.03 24 1008.5
20260504212018 21 91 1.6 11.3 0.00 0.03 0.03 24 1008.7
20260504211547 21 302 3.2 11.3 0.00 0.03 0.03 26 1008.7
20260504211017 21 105 3.2 11.3 0.00 0.03 0.03 24 1008.7
20260504210517 21 89 1.6 11.3 0.00 0.03 0.03 25 1008.9
20260504210054 21 30 3.2 11.3 0.00 0.03 0.03 27 1009.0
20260504205518 20 110 3.2 11.3 0.00 0.03 0.03 28 1009.1
20260504205017 19 338 0.0 11.3 0.00 0.03 0.03 31 1009.1
20260504204541 19 0 0.0 8.0 0.00 0.03 0.03 33 1009.3
20260504204018 18 298 1.6 11.3 0.00 0.03 0.03 31 1009.5
20260504203518 18 310 3.2 11.3 0.00 0.03 0.03 34 1009.8
20260504203043 18 290 4.8 11.3 0.00 0.03 0.03 34 1009.9
20260504202519 18 305 1.6 8.0 0.00 0.03 0.03 34 1009.8
20260504202016 17 98 0.0 9.7 0.03 0.03 0.03 35 1010.0
20260504201546 17 51 3.2 9.7 0.03 0.03 0.03 37 1010.0
20260504201017 17 338 3.2 11.3 0.03 0.03 0.03 38 1010.0
20260504200517 17 318 3.2 11.3 0.03 0.03 0.03 38 1010.1
20260504200039 16 18 1.6 11.3 0.03 0.03 0.03 43 1010.0
20260504195518 16 51 1.6 6.4 0.03 0.03 0.03 45 1010.2
20260504195018 16 307 1.6 6.4 0.03 0.03 0.03 49 1010.4
20260504194558 16 345 1.6 11.3 0.03 0.03 0.03 47 1010.7
20260504194019 16 233 1.6 11.3 0.03 0.03 0.03 38 1010.9
20260504193518 16 0 0.0 8.0 0.03 0.03 0.03 44 1011.0
20260504193036 16 0 1.6 8.0 0.03 0.03 0.03 38 1011.1
20260504192517 16 222 0.0 19.3 0.03 0.03 0.03 46 1011.0
20260504192018 16 77 1.6 19.3 0.00 0.00 0.00 41 1011.0
20260504191542 16 105 6.4 29.0 0.00 0.00 0.00 38 1010.8
20260504191018 16 204 4.8 29.0 0.00 0.00 0.00 36 1010.6
20260504190520 16 331 12.9 29.0 0.00 0.00 0.00 39 1011.1
20260504190040 17 253 8.0 25.7 0.00 0.00 0.00 38 1010.4
20260504185521 18 315 12.9 25.7 0.00 0.00 0.00 36 1010.1
20260504185020 20 1 4.8 16.1 0.00 0.00 0.00 24 1009.8
20260504184539 20 51 1.6 9.7 0.00 0.00 0.00 22 1009.6
20260504184018 20 0 1.6 9.7 0.00 0.00 0.00 23 1009.5
20260504183521 21 14 3.2 14.5 0.00 0.00 0.00 23 1009.4
20260504183037 21 28 3.2 14.5 0.00 0.00 0.00 22 1009.4
20260504182518 21 83 3.2 16.1 0.00 0.00 0.00 22 1009.4
20260504182018 21 347 1.6 16.1 0.00 0.00 0.00 22 1009.4
20260504181543 22 38 4.8 16.1 0.00 0.00 0.00 21 1009.3
20260504181018 22 34 4.8 12.9 0.00 0.00 0.00 22 1009.5
20260504180518 22 290 4.8 9.7 0.00 0.00 0.00 22 1009.4
20260504180057 22 330 3.2 19.3 0.00 0.00 0.00 22 1009.5
20260504175517 22 341 6.4 19.3 0.00 0.00 0.00 22 1009.5
20260504175018 22 354 3.2 9.7 0.00 0.00 0.00 23 1009.6
20260504174535 22 58 3.2 8.0 0.00 0.00 0.00 23 1009.6
20260504174018 22 64 1.6 8.0 0.00 0.00 0.00 23 1009.8
20260504173520 22 63 1.6 14.5 0.00 0.00 0.00 22 1009.9
20260504173044 22 75 4.8 14.5 0.00 0.00 0.00 22 1010.0
20260504172518 22 330 0.0 8.0 0.00 0.00 0.00 23 1010.1
20260504172018 21 61 3.2 8.0 0.00 0.00 0.00 23 1010.2
20260504171539 21 49 0.0 8.0 0.00 0.00 0.00 23 1010.2
20260504171017 21 48 1.6 9.7 0.00 0.00 0.00 24 1010.2
20260504170520 21 255 3.2 9.7 0.00 0.00 0.00 23 1010.3
20260504151015 15 0 0.0 1.6 0.00 0.00 0.00 40 1011.2
20260504150516 14 0 0.0 1.6 0.00 0.00 0.00 41 1011.3
20260504141018 10 0 0.0 0.0 0.00 0.00 0.00 51 1011.4
20260504140518 10 0 0.0 1.6 0.00 0.00 0.00 50 1011.3